Location: Lake Sonoma
(38.7200°N, 123.0564°W)
Time: 20:36:03
(UTC-07:00)

ISS - All Passes

Search period start: 25 May 2015 00:00
Search period end: 04 June 2015 00:00
Orbit: 399 x 404 km, 51.6° (Epoch: 25 May)

Date Brightness Start Highest point End Pass type
(mag) Time Alt. Az. Time Alt. Az. Time Alt. Az.
25 May - 01:02:55 10° WSW 01:06:08 62° NW 01:09:22 10° NE visible
25 May - 02:41:19 10° NW 02:43:06 14° NNW 02:44:50 10° NNE visible
25 May - 05:55:59 10° NNW 05:58:11 17° NNE 06:00:25 10° ENE daylight
25 May - 07:31:42 10° NW 07:34:59 83° SW 07:38:14 10° SE daylight
26 May - 00:09:44 10° SW 00:12:56 62° SE 00:16:09 10° ENE night (unlit)
26 May - 01:47:11 10° WNW 01:49:37 19° NNW 01:52:02 10° NNE visible
26 May - 05:03:13 10° N 05:04:40 12° NNE 05:06:10 10° NE visible
26 May - 06:38:33 10° NW 06:41:44 48° NE 06:44:55 10° ESE daylight
26 May - 08:15:48 10° W 08:17:54 16° SW 08:19:56 10° S daylight
26 May - 23:16:59 10° SSW 23:19:48 29° SE 23:22:41 10° ENE night (unlit)
27 May - 00:53:18 10° W 00:56:12 29° NNW 00:59:06 10° NNE visible
27 May - 02:33:06 10° NNW 02:33:28 10° N 02:33:48 10° N visible
27 May - 05:45:32 10° NNW 05:48:24 27° NNE 05:51:16 10° E daylight
27 May - 07:21:52 10° WNW 07:24:49 31° SW 07:27:46 10° SSE daylight
27 May - 22:24:57 10° SSE 22:26:44 14° SE 22:28:37 10° E night (unlit)
27 May - 23:59:41 10° WSW 00:02:52 52° NW 00:06:04 10° NE visible
28 May - 01:38:19 10° NW 01:39:53 13° NNW 01:41:25 10° NNE visible
28 May - 04:52:36 10° NNW 04:54:57 18° NNE 04:57:20 10° ENE visible
28 May - 06:28:25 10° NW 06:31:40 69° SW 06:34:54 10° SE daylight
28 May - 23:06:23 10° SW 23:09:36 75° SE 23:12:51 10° NE night (unlit)
29 May - 00:44:04 10° WNW 00:46:21 17° NNW 00:48:37 10° NNE visible
29 May - 03:59:47 10° NNW 04:01:25 13° NNE 04:03:07 10° NE visible
29 May - 05:35:11 10° NW 05:38:25 57° NE 05:41:38 10° ESE daylight
29 May - 07:12:49 10° W 07:14:31 13° SW 07:16:08 10° SSW daylight
29 May - 22:13:28 10° SSW 22:16:25 34° SE 22:19:25 10° ENE night (unlit)
29 May - 23:50:04 10° W 23:52:53 26° NNW 23:55:41 10° NNE visible
30 May - 03:07:14 10° N 03:07:50 10° NNE 03:08:27 10° NNE visible
30 May - 04:42:06 10° NW 04:45:03 31° NNE 04:48:02 10° E visible
30 May - 06:18:36 10° WNW 06:21:25 26° SW 06:24:12 10° SSE daylight
30 May - 21:21:09 10° S 21:23:17 17° SE 21:25:31 10° E visible
30 May - 22:56:21 10° WSW 22:59:28 44° NW 23:02:37 10° NE visible
31 May - 00:35:13 10° NW 00:36:34 12° NNW 00:37:53 10° N visible
31 May - 03:49:07 10° NNW 03:51:36 20° NNE 03:54:07 10° ENE visible
31 May - 05:25:02 10° WNW 05:28:14 56° SW 05:31:26 10° SE daylight
31 May - 22:02:56 10° SW 22:06:10 90° SE 22:09:25 10° NE visible
31 May - 23:40:51 10° WNW 23:42:59 16° NNW 23:45:04 10° NNE visible
01 Jun - 02:56:13 10° NNW 02:58:03 14° NNE 02:59:55 10° NE visible
01 Jun - 04:31:43 10° NW 04:34:59 68° NE 04:38:13 10° ESE visible
01 Jun - 06:09:56 10° WSW 06:11:02 11° SW 06:11:59 10° SW daylight
01 Jun - 21:09:51 10° SSW 21:12:55 41° SE 21:16:00 10° ENE visible
01 Jun - 22:46:45 10° W 22:49:26 23° NNW 22:52:07 10° NNE visible
02 Jun - 02:03:31 10° N 02:04:25 11° NNE 02:05:22 10° NNE visible
02 Jun - 03:38:34 10° NW 03:41:36 35° NNE 03:44:39 10° E visible
02 Jun - 05:15:14 10° WNW 05:17:53 22° SW 05:20:29 10° S visible
02 Jun - 20:17:19 10° S 20:19:44 20° SE 20:22:13 10° E daylight
02 Jun - 21:52:55 10° WSW 21:55:59 38° NNW 21:59:03 10° NE visible
02 Jun - 23:32:01 10° NNW 23:33:07 11° NNW 23:34:11 10° N visible
03 Jun - 02:45:30 10° NNW 02:48:07 22° NNE 02:50:45 10° E visible
03 Jun - 04:21:32 10° WNW 04:24:41 47° SW 04:27:49 10° SSE visible
03 Jun - 20:59:22 10° SW 21:02:36 76° NW 21:05:51 10° NE visible
03 Jun - 22:37:31 10° WNW 22:39:28 15° NNW 22:41:24 10° NNE visible
